Wind_Speed
4 5 5 3 4 5 2 5 1 4 3 5 8 6 6 5 4 3 14 20 30 27 21 19 19 18 17 15 15 14 15 14 14 14 14 14 13 13 12 10 10 11 11 10 9 9 9 10 10
8 9 3 2 4 1 5 3 5 4 9 14 10 10 3 4 5 13 15 26 30 27 24 21 18 17 16 15 15 15 15 15 15 14 12 12 11 9 9 8 8 8 8 9 9 10 10 10 10
7 5 3 4 4 5 5 6 12 7 10 8 6 9 4 4 12 13 22 29 28 27 24 20 18 17 17 15 16 16 16 16 13 11 10 9 8 8 8 8 8 8 9 9 9 10 10 10 11
6 3 3 2 7 6 6 7 8 4 2 5 14 10 4 12 16 18 31 31 29 25 23 20 18 17 17 18 18 17 16 13 11 11 11 10 9 8 10 11 11 10 10 10 11 12 12 12 12
3 3 0 1 5 6 6 9 9 4 2 12 6 6 4 6 30 39 33 31 31 26 22 19 18 18 18 18 18 16 14 13 11 11 12 12 13 14 16 17 16 13 13 13 14 15 15 15 14
2 3 2 3 4 4 6 7 3 4 5 8 11 10 3 29 38 33 35 30 27 28 23 20 18 19 19 18 17 16 13 12 12 13 13 12 12 12 14 15 17 16 15 14 15 16 16 15 16
5 4 5 3 8 5 8 3 5 9 8 5 13 5 6 22 32 33 32 28 28 26 25 21 19 17 17 17 16 14 13 14 13 11 10 9 10 11 10 12 14 14 13 13 16 16 13 15 16
5 4 4 4 4 8 5 5 4 10 8 7 7 7 11 14 34 33 29 26 28 27 24 23 20 19 19 17 15 15 15 15 12 9 8 8 9 9 8 11 11 11 14 14 16 15 16 16 14
4 2 5 4 2 2 2 6 2 12 14 21 6 6 25 28 38 31 28 25 26 24 24 22 22 21 19 17 16 15 13 11 10 11 9 8 7 6 9 11 12 11 12 13 14 16 14 16 16
4 3 4 8 5 8 4 10 11 7 14 4 12 15 29 27 35 27 25 24 23 28 26 25 25 23 21 20 17 14 12 10 9 8 7 8 5 6 8 10 9 12 12 12 14 14 17 18 17
2 5 5 10 11 8 7 21 9 19 15 19 23 24 20 25 31 30 27 33 36 33 30 28 27 25 22 21 19 15 13 11 7 5 5 5 6 9 10 9 11 12 12 13 14 16 15 19 19
1 9 8 10 12 4 7 14 12 18 6 14 26 26 22 22 22 27 27 26 25 29 30 27 26 25 22 20 20 17 15 10 7 5 3 4 9 8 10 10 11 12 13 13 13 15 16 17 18
5 10 9 13 10 9 5 6 10 12 12 15 19 20 18 13 16 25 30 31 32 30 30 28 26 24 21 22 18 20 16 10 6 4 5 7 9 9 8 7 7 9 11 13 14 14 15 15 15
5 6 10 8 10 6 3 5 5 3 18 9 9 9 8 9 10 21 25 31 32 31 31 29 29 23 21 23 21 20 15 7 4 6 7 9 8 11 8 7 8 10 12 13 13 16 12 12 13
4 6 10 6 3 4 5 3 5 16 13 13 7 9 10 8 12 27 30 35 36 36 35 30 29 26 23 24 21 16 12 9 6 7 8 9 7 8 8 10 12 12 10 7 8 13 15 10 12
7 4 6 8 5 8 7 8 5 17 18 16 11 14 16 16 12 22 35 35 37 39 41 36 33 27 22 19 16 16 14 10 7 6 7 7 5 7 8 11 11 8 6 7 9 11 12 12 8
6 4 6 10 2 5 5 10 11 16 17 16 16 18 10 7 6 22 24 33 43 45 45 39 35 28 22 17 18 16 14 11 9 8 7 6 6 9 8 9 11 11 7 6 7 11 11 13 8
7 4 6 7 9 4 9 13 20 20 21 20 17 4 8 8 6 27 36 38 30 47 46 42 37 31 23 21 22 21 16 14 11 6 7 6 6 9 9 9 12 13 12 11 9 9 12 14 11
3 5 8 5 5 2 6 5 20 17 9 12 12 12 9 12 11 23 27 27 32 40 46 45 40 33 31 29 27 23 22 18 11 8 8 8 8 9 10 13 15 15 14 15 14 14 13 16 11
9 7 8 7 8 5 9 1 4 24 22 21 20 17 13 9 7 20 24 37 34 33 40 42 38 36 35 32 28 25 22 17 11 10 10 7 7 10 9 13 13 11 11 14 16 15 16 18 19
4 4 5 6 8 3 4 8 7 4 20 20 18 25 18 22 22 20 23 30 32 34 39 46 42 38 35 31 27 24 22 19 16 15 12 9 8 10 11 12 12 10 12 14 14 14 14 16 21
5 3 5 5 6 2 4 3 8 15 14 13 21 22 24 25 25 21 25 23 20 11 12 21 36 37 36 33 31 31 28 25 20 18 14 12 8 10 9 11 9 11 11 12 12 10 14 17 15
8 2 2 3 5 3 9 6 9 18 20 23 9 28 30 31 30 24 19 26 29 30 20 21 24 30 29 30 29 32 31 24 21 18 16 14 12 9 11 8 7 8 8 10 11 9 13 16 19
4 5 8 5 4 5 5 5 10 8 9 17 17 6 14 16 7 4 13 23 26 30 37 33 39 39 30 27 28 35 31 23 25 22 19 17 15 12 10 8 7 6 5 6 6 9 8 11 14
8 7 4 5 5 4 2 8 2 5 4 9 10 9 2 12 8 8 6 3 5 17 22 27 30 32 30 30 26 22 23 23 28 26 22 20 17 15 14 10 8 6 4 4 3 5 10 10 12
2 6 5 1 2 5 7 2 4 3 1 6 11 8 16 12 10 13 17 21 17 24 22 31 31 27 21 25 24 21 21 26 27 22 21 20 20 17 15 11 9 5 4 5 2 4 5 5 6
6 5 2 3 2 4 0 3 5 1 8 15 9 9 4 10 15 15 12 13 22 23 20 23 27 28 26 22 21 21 23 26 23 19 18 19 21 18 14 13 10 6 4 8 6 3 4 2 1
6 1 3 4 2 2 1 2 4 5 3 9 4 1 5 3 4 4 2 8 21 25 26 28 31 34 31 28 26 23 23 26 22 18 15 19 23 19 14 13 9 5 5 6 8 7 5 4 4
6 4 6 3 4 4 1 5 7 8 5 10 8 9 7 3 3 1 6 7 17 23 29 33 36 33 31 27 24 21 23 24 21 19 17 19 21 21 17 14 9 7 6 6 7 9 9 9 10
0 3 4 4 4 1 3 6 3 10 6 4 7 4 3 4 6 4 2 4 10 20 28 34 30 31 30 27 24 22 21 21 22 23 20 19 18 20 17 12 11 8 10 9 8 9 10 10 7
Wind_Direction
160 134 129 75 43 58 283 249 247 202 142 65 105 137 124 72 178 183 134 168 157 151 148 144 139 134 127 123 118 112 105 99 94 91 87 84 78 72 70 70 64 58 49 43 38 34 27 20 12
159 139 77 70 88 34 275 230 236 204 125 112 90 120 71 80 75 121 116 147 153 148 147 145 142 134 126 125 118 110 104 99 97 94 92 88 87 81 65 53 46 38 36 27 23 20 17 13 10
185 179 97 131 154 187 234 198 227 266 151 191 121 93 87 100 112 139 147 151 148 147 145 145 143 137 132 124 116 111 105 105 108 104 96 88 76 67 53 38 32 25 23 18 13 8 4 359 355
174 40 13 158 241 260 226 212 220 260 232 161 118 86 75 149 146 145 146 149 150 146 147 146 144 139 133 127 120 116 119 119 115 102 92 84 75 63 54 44 35 27 24 15 12 7 360 354 347
219 74 34 318 270 272 260 270 154 171 34 135 137 105 98 81 138 140 150 154 150 148 147 148 145 141 135 134 134 137 129 121 109 97 91 91 80 77 60 46 39 38 34 34 31 23 18 15 6
25 101 64 257 257 249 257 262 217 79 124 109 106 117 103 130 133 147 155 155 153 152 151 150 149 144 142 140 136 129 122 112 109 104 95 88 82 69 51 44 38 40 39 39 32 24 16 16 17
134 95 222 212 259 263 239 92 91 89 99 339 127 105 133 144 144 151 155 150 156 151 149 150 153 150 145 141 134 124 118 113 109 103 98 82 72 56 44 37 36 39 33 38 25 17 21 16 6
124 109 255 237 283 290 198 118 100 129 41 19 190 160 166 157 147 151 148 150 154 154 154 155 156 152 147 141 134 125 119 116 101 94 103 86 65 48 38 36 42 48 48 39 41 34 15 11 25
128 77 264 257 277 270 354 98 19 134 156 195 229 150 159 147 145 141 135 142 156 159 161 163 159 156 151 146 139 134 128 123 119 106 114 114 80 64 62 65 56 60 44 38 41 23 34 7 20
114 154 228 215 257 287 190 142 132 153 153 205 128 135 166 142 146 149 152 156 168 168 174 172 167 161 159 154 151 144 130 126 133 133 128 123 84 69 66 74 59 44 31 41 36 43 25 56 42
177 212 226 274 255 233 271 134 142 148 178 167 153 158 175 146 157 161 166 169 176 170 172 177 174 167 165 164 160 151 142 136 133 134 136 112 96 93 75 78 60 41 53 49 49 31 63 57 47
247 249 235 259 265 266 262 147 155 152 142 180 159 164 171 161 168 166 170 171 169 173 174 175 177 176 174 173 169 163 158 146 126 125 146 99 112 99 87 78 66 66 56 46 38 58 59 53 51
192 267 276 262 277 257 214 208 180 193 168 190 153 162 173 166 154 174 175 168 171 172 179 182 187 187 187 181 176 173 162 150 114 91 107 100 105 101 94 68 75 65 62 57 54 77 60 57 56
237 261 270 287 267 248 208 142 112 276 142 160 139 127 133 132 157 138 147 162 167 173 179 185 190 192 188 177 165 167 163 151 124 90 97 112 83 112 82 70 85 73 76 67 63 58 58 69 67
259 312 319 279 255 286 129 356 207 147 142 160 165 161 146 151 94 155 155 157 163 174 176 180 184 170 157 161 162 167 172 155 137 104 107 116 102 95 71 85 82 84 80 81 69 67 69 74 74
354 22 355 283 327 268 96 269 116 154 161 179 177 182 179 183 102 166 162 161 168 171 175 174 174 173 172 170 166 166 165 157 141 114 111 120 115 105 97 93 77 64 60 82 68 61 70 44 57
3 275 295 309 285 268 134 250 152 166 171 176 182 191 179 97 107 148 169 169 171 177 178 179 182 181 176 171 165 164 156 155 144 133 119 114 112 111 114 96 70 54 59 97 71 69 63 44 55
244 320 309 280 294 200 241 240 159 175 174 182 185 160 187 158 149 147 169 180 183 179 181 181 181 176 175 166 161 155 155 150 147 142 144 118 108 124 108 95 74 61 73 74 79 91 76 45 36
254 254 246 247 265 231 303 227 166 178 166 182 181 187 193 184 192 156 177 187 181 180 179 180 177 173 171 169 165 159 153 153 157 153 145 139 118 135 102 101 82 70 71 62 73 81 72 55 34
255 243 304 291 290 24 333 215 130 176 186 190 181 189 194 180 199 186 174 177 187 187 178 175 178 174 173 176 177 170 164 159 171 161 152 149 137 121 102 109 90 85 74 68 65 76 77 64 51
309 265 286 299 314 2 41 341 360 302 185 206 192 194 189 187 191 207 209 187 179 188 181 176 180 178 175 176 174 168 165 158 157 161 153 144 139 140 113 104 88 72 67 70 61 64 75 80 66
309 343 325 323 36 327 54 289 346 348 337 187 192 198 201 199 205 198 205 195 177 174 194 161 171 178 175 176 174 173 165 167 175 166 157 150 145 131 126 103 88 71 69 68 57 70 72 75 71
245 299 23 9 14 24 355 64 326 22 8 358 214 197 199 197 197 203 188 175 169 167 184 179 197 182 177 178 185 188 180 174 172 163 161 162 156 134 120 113 106 88 76 72 63 77 78 76 75
281 30 19 47 55 13 295 105 5 25 12 12 20 83 203 215 254 216 187 170 168 184 182 184 181 181 174 180 192 180 175 172 167 170 173 172 169 161 152 137 137 122 85 88 77 64 84 82 77
48 51 346 359 15 219 103 66 185 278 340 41 32 4 349 166 127 90 100 71 247 173 166 171 182 178 170 174 183 186 183 188 186 182 179 171 174 179 174 164 140 146 123 121 105 79 88 88 72
104 134 141 355 277 269 353 130 240 229 134 43 67 45 82 88 120 159 162 152 229 207 170 179 174 169 179 175 183 181 179 183 186 185 183 181 184 177 170 167 150 148 182 166 153 132 106 92 67
313 45 226 127 32 55 359 329 294 273 51 53 24 91 68 152 164 181 195 201 176 174 173 166 171 172 173 180 189 187 189 187 189 189 192 191 191 185 177 171 165 161 194 188 178 183 168 175 254
65 321 19 16 86 327 1 306 230 296 86 123 107 251 149 199 223 236 288 133 145 149 158 176 180 180 179 187 189 185 182 189 189 188 196 199 198 187 180 177 174 183 209 199 207 212 183 210 229
351 349 50 118 128 153 232 265 216 229 244 145 180 199 179 147 271 351 123 116 129 152 165 181 188 183 183 185 187 179 175 185 189 188 175 170 175 183 181 181 188 202 206 220 208 215 225 242 264
259 117 110 112 276 104 134 276 299 222 286 116 187 154 193 211 248 230 251 150 146 169 177 188 184 185 188 186 187 187 192 196 187 181 180 177 176 179 180 193 203 214 215 212 220 235 244 266 248
Height
785 785 786 788 817 828 832 815 798 797 794 780 778 783 791 791 801 821 800 803 808 812 816 817 817 818 817 819 819 819 818 819 819 820 821 820 820 819 820 819 818 818 818 818 817 816 815 814 813
784 785 787 795 833 840 828 805 804 784 780 778 782 784 790 801 791 799 803 808 810 813 816 819 819 819 819 820 820 819 820 820 820 821 822 821 820 820 820 819 818 817 816 816 816 815 814 813 812
784 786 795 811 830 837 825 796 787 776 773 775 784 780 787 800 797 800 803 808 812 814 816 818 818 819 819 821 821 821 821 821 821 822 821 821 821 820 820 820 818 817 816 815 815 814 813 812 811
784 788 795 815 820 804 795 780 776 774 769 771 778 793 787 789 793 798 805 809 813 815 817 818 819 820 820 821 821 822 821 821 822 821 821 820 821 821 821 820 819 817 815 815 814 814 813 811 810
782 792 814 820 810 793 783 766 769 775 772 773 774 795 794 792 793 800 806 809 810 815 817 817 818 819 819 820 821 822 822 821 822 821 821 821 821 820 821 820 819 817 815 815 814 813 812 811 810
791 795 824 828 807 779 777 769 771 774 775 780 784 791 797 794 797 802 804 809 810 812 816 819 820 820 819 820 821 821 822 822 822 822 822 822 822 821 820 821 819 817 816 816 815 814 813 811 810
793 808 818 811 806 789 777 764 776 781 783 791 778 797 797 798 799 805 807 809 812 815 817 821 823 823 823 823 822 822 823 823 823 823 823 823 823 822 821 820 819 818 818 816 814 813 813 812 811
783 798 804 802 803 798 762 766 767 775 798 789 787 798 800 794 799 803 810 811 814 817 818 820 822 823 824 825 825 824 824 824 825 823 823 823 823 823 821 820 820 819 817 816 814 813 813 812 810
772 807 816 805 794 784 763 771 773 770 785 788 779 779 780 790 797 804 809 815 817 820 820 821 821 822 823 824 825 825 825 825 825 825 823 824 824 824 822 821 820 819 818 816 815 814 814 812 810
784 809 800 782 775 776 767 760 772 781 787 793 780 777 781 789 795 802 805 809 816 815 818 820 820 821 822 823 825 827 826 825 825 826 824 824 823 823 823 823 821 819 818 817 816 816 814 812 811
778 795 777 770 766 764 761 763 768 781 786 771 773 775 778 785 789 794 802 804 806 811 816 818 820 821 823 824 825 826 826 825 826 827 826 824 823 824 824 822 820 819 819 819 818 816 815 815 813
783 771 769 763 755 760 761 758 776 766 776 762 759 762 768 776 785 789 797 806 811 813 816 820 823 823 824 824 824 825 826 826 827 827 827 825 824 824 823 822 821 821 820 820 819 817 817 815 814
780 770 762 755 757 756 751 753 757 760 752 766 762 765 771 778 787 791 793 799 806 811 815 819 823 824 824 825 826 828 828 828 828 829 828 826 825 824 824 824 822 821 820 821 820 818 818 817 817
764 763 760 754 753 749 751 757 756 763 758 771 770 774 776 778 782 787 790 798 804 808 813 817 821 823 824 826 828 829 829 828 828 830 830 828 827 825 825 824 823 822 821 821 820 819 819 819 819
760 769 760 752 746 747 744 758 763 759 766 769 771 773 774 777 779 781 785 790 796 802 807 814 819 821 823 826 828 828 830 828 830 830 832 829 829 827 826 825 824 821 821 820 820 820 820 820 819
773 774 791 757 748 744 750 780 763 760 765 768 770 768 767 767 773 778 778 785 792 797 801 808 813 817 821 824 827 827 829 829 830 832 833 831 831 829 828 826 825 823 820 820 820 820 821 821 820
795 804 791 776 747 754 756 769 764 760 763 767 769 766 772 777 771 776 783 784 784 790 796 802 807 812 816 821 824 827 829 830 832 834 834 834 833 831 830 828 826 823 821 821 822 821 821 820 820
804 797 790 788 759 754 759 759 767 762 759 763 768 776 772 771 771 768 773 774 783 783 790 795 801 807 811 819 824 825 827 830 833 835 836 835 835 834 833 830 827 825 823 824 824 823 821 820 820
783 789 791 770 750 753 760 753 771 767 770 772 776 776 773 767 766 765 764 773 773 779 781 785 793 800 805 815 820 823 825 828 833 835 836 836 836 836 833 832 829 828 828 827 825 823 823 821 819
781 783 780 763 747 750 756 745 737 761 760 761 767 769 766 768 766 757 758 756 771 777 779 782 790 794 798 810 817 819 824 828 831 834 835 835 835 836 834 832 831 830 830 829 828 826 825 824 821
772 775 775 775 755 750 755 771 763 745 756 756 761 749 756 755 755 751 753 753 761 771 769 770 778 791 797 807 814 819 823 828 830 832 832 834 836 835 833 833 832 833 833 831 830 829 828 826 824
782 759 762 764 776 795 762 812 785 771 760 759 758 754 750 753 749 745 750 756 768 782 787 771 777 789 795 801 806 813 816 822 827 829 831 834 836 836 835 834 835 836 835 834 834 833 832 830 828
773 751 760 762 780 780 782 809 818 780 782 770 748 742 736 736 737 743 751 756 761 765 768 766 776 800 802 804 806 810 815 819 825 828 831 835 836 836 834 835 836 837 838 838 837 836 835 834 832
745 759 773 781 792 817 792 803 820 802 796 780 762 755 752 756 767 760 760 756 761 765 766 774 782 787 793 801 808 805 809 815 821 825 828 831 833 834 833 834 835 838 839 840 840 838 837 838 837
762 793 824 822 828 822 791 807 811 796 782 776 773 768 741 752 763 768 772 780 789 778 780 783 790 792 788 794 808 811 810 811 814 819 824 827 831 832 832 835 835 838 840 841 841 840 839 840 839
769 786 825 830 836 824 790 813 811 781 777 774 769 771 762 768 772 769 768 772 772 771 784 786 786 791 797 797 802 806 808 810 815 817 821 824 828 830 831 833 835 837 841 841 842 842 841 841 841
774 797 781 805 811 821 813 805 786 777 771 767 779 776 774 771 767 767 772 771 770 779 792 790 787 792 792 797 802 803 806 811 817 819 820 823 827 829 831 832 834 835 837 841 842 842 841 841 841
775 779 805 821 830 830 822 816 813 788 779 769 778 777 771 770 769 768 769 770 765 771 782 782 784 784 785 791 797 797 802 809 814 818 818 822 824 829 831 833 834 835 838 838 841 841 841 841 841
794 799 813 816 821 834 838 825 790 782 773 773 774 773 769 767 769 770 768 772 771 772 771 775 781 781 783 789 797 798 802 808 812 814 817 819 823 826 829 832 833 835 837 838 839 840 840 841 841
775 793 806 827 820 826 832 826 771 773 774 769 769 770 771 770 772 769 770 769 764 769 770 772 779 781 782 784 790 795 804 809 810 812 817 819 823 825 826 830 832 833 835 836 838 839 839 839 839